Belvidere, Illinois, United States (61008)
Lat: 42.26N, Lon: 88.84W
Wx Zone: ILZ004
Local Info
Past Weather Observations for Sunday, October 19, 2014

NOTE: This archive is for the closest National Weather Service station to Belvidere. Information may differ from the station used for current weather conditions.

Click here for Long-term Archive

Time Weather Temperature Dewpoint Humidity Pressure Winds Precip Visibility
23:54
Clear
48°F / 9°C 43°F / 6°C 82% 29.89 in
(1012 mb)
S 9.2 mph
(S 15 kph)
- 10SM
22:54
Clear
48°F / 9°C 43°F / 6°C 82% 29.92 in
(1013 mb)
S 9.2 mph
(S 15 kph)
- 10SM
21:54
Partly Cloudy
48°F / 9°C 43°F / 6°C 82% 29.92 in
(1013 mb)
SSE 9.2 mph
(SSE 15 kph)
- 10SM
20:54
Mostly Cloudy
48°F / 9°C 43°F / 6°C 82% 29.95 in
(1014 mb)
S 9.2 mph
(S 15 kph)
- 10SM
19:54
Mostly Cloudy
52°F / 11°C 43°F / 6°C 72% 29.95 in
(1014 mb)
SSE 11.5 mph
(SSE 19 kph)
- 10SM
18:54
Mostly Cloudy
52°F / 11°C 43°F / 6°C 72% 29.95 in
(1014 mb)
S 10.4 mph
(S 17 kph)
- 10SM
17:54
Partly Cloudy
52°F / 11°C 41°F / 5°C 67% 29.98 in
(1015 mb)
S 9.2 mph
(S 15 kph)
- 10SM
16:54
Mostly Cloudy
55°F / 13°C 41°F / 5°C 59% 29.98 in
(1015 mb)
SSE 10.4 mph
(SSE 17 kph)
- 10SM
15:54
Mostly Cloudy
57°F / 14°C 39°F / 4°C 51% 30.01 in
(1016 mb)
SW 15 mph
(SW 24 kph)
- 10SM
14:54
Overcast
59°F / 15°C 39°F / 4°C 48% 30.04 in
(1017 mb)
SW 15 mph
(SW 24 kph)
- 10SM
13:54
Overcast
57°F / 14°C 39°F / 4°C 51% 30.06 in
(1018 mb)
SW 13.8 mph
(SW 22 kph)
- 10SM
12:54
Overcast
57°F / 14°C 39°F / 4°C 51% 30.09 in
(1019 mb)
SW 16.1 mph
(SW 26 kph)
- 10SM
11:54
Overcast
55°F / 13°C 41°F / 5°C 59% 30.12 in
(1020 mb)
SW 16.1 mph
(SW 26 kph)
- 10SM
10:54
Overcast
52°F / 11°C 41°F / 5°C 67% 30.15 in
(1021 mb)
SW 12.7 mph
(SW 20 kph)
- 10SM
09:54
Overcast
48°F / 9°C 41°F / 5°C 76% 30.18 in
(1022 mb)
SW 11.5 mph
(SW 19 kph)
- 10SM
08:54
Overcast
45°F / 7°C 39°F / 4°C 81% 30.21 in
(1023 mb)
SW 8.1 mph
(SW 13 kph)
- 10SM
07:54
Overcast
37°F / 3°C 36°F / 2°C 93% 30.21 in
(1023 mb)
S 5.8 mph
(S 9 kph)
- 10SM
06:54
Mostly Cloudy
Fog
32°F / 0°C 30°F / -1°C 93% 30.21 in
(1023 mb)
Calm - 10SM
05:54
Partly Cloudy
Fog
34°F / 1°C 28°F / -2°C 81% 30.21 in
(1023 mb)
Calm - 10SM
04:54
Partly Cloudy
Fog
32°F / 0°C 28°F / -2°C 87% 30.21 in
(1023 mb)
SSE 3.5 mph
(SSE 6 kph)
- 10SM
03:54
Partly Cloudy
Fog
32°F / 0°C 30°F / -1°C 93% 30.18 in
(1022 mb)
Calm - 10SM
02:54
Partly Cloudy
Fog
34°F / 1°C 30°F / -1°C 87% 30.18 in
(1022 mb)
SSE 3.5 mph
(SSE 6 kph)
- 10SM
01:54
Partly Cloudy
Fog
34°F / 1°C 30°F / -1°C 87% 30.21 in
(1023 mb)
SSE 3.5 mph
(SSE 6 kph)
- 10SM
00:54
Partly Cloudy
36°F / 2°C 32°F / 0°C 87% 30.21 in
(1023 mb)
Calm - 10SM
Time Weather Temperature Dewpoint Humidity Pressure Winds Precip Visibility


Weather for websites

WeatherForYou.com, LLC is not responsible for any damages or problems caused by this service. Current weather conditions are obtained from the closest station including government and personal stations which may have varying degrees of accuracy. Weather forecasts are derived from the NOAA NDFD. Like all things, this site belongs to Jesus Christ... He just trusts me to maintain it. If you have any questions or comments email webmaster@weatherforyou.com

Copyright © 2014, WeatherForYou.com LLC. All rights reserved.